Hovedside
METAR-TAF:

METAR-TAF

Lufthavner :

Draugen, Norge

Draugenfeltet

breddegrad: 64-21-20N, lengdegrad: 007-47-30E, høyde over havet: 0 m

Gjeldene værobservasjon

Denne rapporten ble laget for 11 minutter siden, klokken 21:50 UTC
Vind 17 kt fra Nord-nordøst
Temperatur 14°C
Luftfuktighet 88%
Trykk 1002 hPa

METAR: ENDR 182150Z AUTO 03017KT 14/12 Q1002

Tid: 00:01 (22:01 UTC)


TAF: fraværende

Værobservasjoner og værvarsel for over 4000 flyplasser (METAR- og TAF-rapporter).

Tilgjengelige stasjoner er representert av de røde og gule prikkene på kartet.

Hold musepekeren over prikken for å se navnet på stasjonen.

Klikk så for å se værobservasjoner og -varsler.

For å forandre kartet kan du klikke på den grønne knappen med svart kryss for å zoome inn, på den grønne knappen med strek for å zoome ut, eller på de grønne pilene for å se tilstøtende kart.


METAR-TAF: